Location: Squamish
(49.7000°N, 123.1500°W)
Time: 06:21:55
(UTC-07:00)

Daily predictions for brighter satellites

Satellite Brightness Start Highest point End
(mag) Time Altitude Azimuth Time Altitude Azimuth Time Altitude Azimuth
Cosmos 468 Rocket 4.1 19:32:27 10° S 19:37:32 55° ESE 19:42:42 10° NNE
Cosmos 1709 Rocket 4.1 19:31:49 10° S 19:38:06 67° E 19:44:27 10° NNE
ATLAS 2AS CENTAUR R/B 4.1 19:30:59 10° NW 19:38:18 34° NNE 19:45:23 10° E
Cosmos 1707 2.8 19:37:22 10° N 19:41:17 60° ENE 19:45:10 10° SSE
BREEZE-M DEB (TANK) 1.2 19:39:58 10° W 19:43:11 89° SSW 19:45:09 10° E
USA 229 DEB 4.4 19:36:55 10° NW 19:43:57 63° SW 19:51:08 10° SSE
USA 229 4.4 19:37:01 10° NW 19:44:03 63° SW 19:51:14 10° SSE
Cosmos 2084 4.5 19:42:16 10° S 19:45:25 22° ESE 19:48:28 10° ENE
HJ-1C 3.8 19:43:12 10° SE 19:46:22 41° ENE 19:49:34 10° N
Resurs 01 Rocket 2.5 19:44:01 10° SE 19:47:51 29° ENE 19:51:40 10° N
NOSS 3-1 (A) 4.1 19:41:06 10° NW 19:48:26 73° NE 19:56:42 10° SE
Cosmos 1656 Rocket 3.7 19:42:50 10° NNW 19:48:32 70° ENE 19:54:06 10° SE
USA 186 3.2 19:48:27 10° E 19:49:33 12° ENE 19:50:39 10° NE
COSMOS 2406 4.3 19:46:45 10° SSE 19:50:57 22° E 19:55:12 10° NE
FENGYUN 3A 3.9 19:46:41 10° S 19:52:02 78° WSW 19:57:27 10° NNW
Cosmos 2369 Rocket 4.0 19:47:55 10° NW 19:52:58 34° WSW 19:57:59 10° S
SKYMED 2 4.3 19:50:55 10° N 19:55:13 58° WNW 19:59:28 10° SSW
Cosmos 1939 Rocket 4.5 19:53:05 10° ESE 19:55:39 17° ENE 19:58:16 10° NNE
FengYun 1-2 T 4.2 19:50:59 10° SSE 19:56:35 77° ENE 20:02:09 10° NNW
Cosmos 2228 3.3 19:53:11 10° SSE 19:57:21 46° E 20:01:32 10° NNE
NOSS 3-1 (C) 4.1 19:50:47 10° NW 19:58:11 87° SW 20:06:32 10° SE
Cosmos 1763 Rocket 3.6 19:53:59 10° S 19:58:53 49° ESE 20:03:52 10° NNE
Cosmos 1953 Rocket 3.8 19:56:38 10° NNW 20:00:59 74° W 20:05:16 10° S
Cosmos 1340 Rocket 3.5 19:57:37 10° NNW 20:01:38 60° W 20:05:39 10° S
Cosmos 1271 Rocket 3.1 19:59:48 10° SSW 20:03:34 69° WNW 20:07:25 10° N
Cosmos 1378 3.2 19:59:46 10° N 20:03:35 84° W 20:07:21 10° S
Cosmos 1606 Rocket 3.6 19:59:38 10° S 20:03:59 87° W 20:08:21 10° N
Cosmos 1674 4.4 20:01:52 10° NNE 20:04:13 16° ENE 20:05:33 14° E
Cosmos 2184 Rocket 4.3 19:59:21 10° SSE 20:05:20 47° E 20:11:23 10° NNE
Cosmos 2058 Rocket 3.0 20:01:15 10° S 20:05:32 60° E 20:09:53 10° NNE
ALOS 3.1 20:01:25 10° S 20:05:59 54° W 20:10:35 10° NNW
Thor Agena Rocket 3.5 20:00:54 10° NNE 20:06:13 79° ESE 20:11:26 10° SSW
FREGAT/IRIS 3.1 20:04:08 10° S 20:07:09 63° W 20:10:10 10° NNW
YAOGAN 6 4.4 20:07:05 14° E 20:08:18 16° ENE 20:10:33 10° NNE
In-Cosmos 22 4.3 20:06:43 10° N 20:12:18 57° ENE 20:17:56 10° SSE
Cosmos 1544 3.9 20:10:04 10° SSE 20:13:09 27° E 20:16:17 10° NNE
Cosmos 1805 4.3 20:14:27 10° SE 20:17:35 24° E 20:20:45 10° NE
BREEZE M DEB (TANK) 2.5 20:13:08 10° WSW 20:20:17 72° SSE 20:22:10 20° E
Cosmos 1943 4.1 20:15:04 10° SW 20:20:38 53° NW 20:26:14 10° NNE
USA 267 4.0 20:15:06 10° ENE 20:21:20 49° N 20:27:36 10° W
CZ-2D R/B 3.1 20:19:18 10° SSE 20:23:05 71° ENE 20:26:55 10° N
Spot 2 Rocket 3.6 20:20:01 10° SSE 20:24:57 58° ENE 20:29:55 10° N
Cosmos 1356 Rocket 3.5 20:20:53 10° NNW 20:25:12 83° W 20:29:30 10° S
Cosmos 2327 Rocket 4.4 20:21:51 10° S 20:27:51 61° E 20:33:50 10° NNE
Cosmos 1356 3.7 20:30:27 10° N 20:33:50 45° ENE 20:35:26 26° SE
SJ-6B 3.9 20:32:36 10° S 20:36:29 47° W 20:40:18 10° NNW
Cosmos 2278 4.5 20:33:15 10° NNW 20:38:26 35° NE 20:41:10 23° E
Cosmos 1953 3.4 20:39:03 25° E 20:39:03 25° E 20:42:09 10° NNE
Cosmos 1814 Rocket 4.3 20:35:17 10° SSW 20:40:25 69° WNW 20:45:34 10° NNE
Meteor 1-24 Rocket 4.0 20:35:47 10° NNW 20:41:50 76° W 20:47:40 10° S
Cosmos 1125 Rocket 3.5 20:38:25 10° NNW 20:43:45 86° ENE 20:48:12 15° SSE
Helios 1A 3.9 20:44:06 27° E 20:44:56 29° ENE 20:48:35 10° N
Elektron 1 4.3 20:47:22 10° NW 20:50:59 57° SW 20:52:01 34° SSE
Cosmos 2322 Rocket 4.4 20:50:41 10° N 20:52:51 12° NNE 20:55:00 10° NE
ERS-1 Rocket 3.9 20:51:42 26° E 20:52:52 29° ENE 20:57:10 10° N
Cosmos 372 Rocket 4.0 20:51:51 10° NNW 20:57:09 84° WSW 21:00:54 20° SSE
Envisat 3.0 20:52:10 11° SSE 20:57:09 85° WSW 21:02:17 10° NNW
H-2A R/B 3.4 21:01:25 20° ENE 21:01:46 20° ENE 21:05:26 10° N
Resurs 1-3 4.1 21:00:38 10° S 21:04:57 58° WSW 21:09:19 10° NNW
CZ-4B DEB 4.4 21:05:12 60° SE 21:05:41 71° ENE 21:09:13 10° N
Cosmos 1697 Rocket 3.6 21:00:32 10° NNW 21:05:41 34° NE 21:07:17 29° E
Cosmos 1980 Rocket 3.5 21:01:24 10° NNW 21:05:57 24° NE 21:07:31 22° ENE
Cosmos 2154 Rocket 3.9 21:03:58 10° S 21:10:09 76° E 21:16:27 10° NNE
Cosmos 1656 4.0 21:09:35 10° NNW 21:15:08 50° NE 21:16:38 40° E
Cosmos 1766 4.3 21:13:16 10° SSW 21:17:04 46° WNW 21:20:52 10° N
Cosmos 2341 Rocket 3.9 21:13:40 12° S 21:19:21 65° E 21:25:31 10° NNE
Cosmos 841 Rocket 4.3 21:14:39 10° SW 21:19:39 51° WNW 21:24:41 10° NNE
USA 186 3.4 21:20:03 23° WSW 21:20:13 23° W 21:22:14 10° NW
Cosmos 1076 Rocket 3.4 21:15:57 10° N 21:20:19 63° ENE 21:20:38 61° ESE
Cosmos 1758 3.1 21:20:28 58° S 21:21:11 81° E 21:25:13 10° NNE
Resurs 01 Rocket 3.1 21:20:10 10° SSW 21:24:14 36° W 21:28:20 10° NNW
Cosmos 2084 3.9 21:20:45 10° WSW 21:24:40 54° NW 21:26:53 22° NNE
GP-B 3.8 21:22:32 10° N 21:26:53 54° W 21:31:12 10° SSW
SL-16 R/B 4.0 21:26:01 10° N 21:29:44 17° NE 21:31:06 16° NE
Cosmos 1939 Rocket 3.4 21:29:01 37° SSW 21:30:14 53° W 21:34:06 10° NNW
ATLAS 2AS CENTAUR R/B 3.1 21:22:37 10° NW 21:30:45 70° NE 21:33:45 41° ESE
COSMOS 2406 3.4 21:28:59 10° SW 21:34:41 73° WNW 21:40:28 10° NNE
Meteor 1-21 Rocket 4.4 21:30:01 10° NNW 21:35:48 73° W 21:38:39 31° S
Cosmos 1408 Rocket 4.0 21:34:16 10° N 21:37:42 47° NE 21:37:42 47° NE
NOAA 11 4.1 21:37:26 54° SSE 21:38:43 81° ENE 21:44:11 10° NNW
Cosmos 1674 3.4 21:36:30 10° NNW 21:40:08 48° W 21:40:28 46° WSW
YAOGAN 6 3.4 21:41:31 48° W 21:41:31 48° W 21:45:02 10° NNW
ARGOS 3.2 21:42:55 58° E 21:43:14 59° ENE 21:48:35 10° N
Cosmos 540 Rocket 3.9 21:38:28 10° SW 21:43:31 59° WNW 21:48:35 10° NNE
FALCON 9 R/B 4.0 21:40:55 10° SW 21:42:57 19° S 21:42:57 19° S
BREEZE M DEB (TANK) 4.3 21:25:30 10° W 21:44:50 90° S 21:46:41 48° E
Cosmos 2369 3.6 21:41:48 10° NNW 21:47:30 85° WSW 21:48:29 62° SSE
Cosmos 2366 rocket 4.1 21:48:22 53° E 21:48:22 53° E 21:54:27 10° NNE
MetOp-A 4.0 21:48:10 70° ESE 21:48:39 76° ENE 21:54:01 10° NNW
Cosmos 2285 Rocket 4.0 21:49:13 56° ESE 21:49:13 56° ESE 21:55:27 10° NNE
Cosmos 2218 Rocket 3.9 21:48:53 58° ESE 21:49:15 59° E 21:55:21 10° NNE
Okean 3 Rocket 4.4 21:52:00 10° NNW 21:56:21 48° W 21:57:02 44° WSW
Terra 3.5 21:59:22 22° NNE 21:59:22 22° NNE 22:01:48 10° N
Meteor 2-21 4.3 22:00:32 50° S 22:02:20 90° W 22:08:30 10° N
USA 267 3.8 22:01:28 37° ENE 22:03:46 52° NNE 22:10:05 10° WNW
Cosmos 1766 Rocket 4.1 22:00:17 10° NNW 22:03:46 55° NNW 22:03:46 55° NNW
SPOT 1/Viking Rocket 4.0 22:08:06 49° NNE 22:08:06 49° NNE 22:12:14 10° N
Cosmos 1470 4.4 22:11:36 31° NNW 22:11:36 31° NNW 22:13:51 10° N
Cosmos 1818 3.9 22:04:31 10° NW 22:09:33 55° NNE 22:09:33 55° NNE
CZ-3A R/B 4.4 21:40:46 10° WNW 22:11:27 74° NNE 22:14:44 42° E
Cosmos 1727 Rocket 3.8 22:06:42 10° N 22:13:02 83° E 22:13:21 79° SE
Cosmos 1953 3.9 22:14:43 32° W 22:15:07 33° WNW 22:18:50 10° N
GEOS 3 Rocket 3.9 22:11:13 10° NE 22:17:38 61° WSW 22:22:02 10° SW
SL-8 Rocket 4.0 22:16:12 56° SSW 22:17:34 77° W 22:23:46 10° N
SPOT 5 3.8 22:23:09 38° NNW 22:23:09 38° NNW 22:25:56 10° NNW
Cosmos 2278 4.2 22:17:20 10° NW 22:22:48 50° WSW 22:23:06 49° WSW
Cosmos 2082 Rocket 4.2 22:27:14 17° NE 22:27:14 17° NE 22:28:31 10° NE
Helios 1B rocket 4.3 22:20:11 10° N 22:22:07 26° N 22:22:07 26° N
ERS-1 Rocket 3.8 22:31:43 46° W 22:31:43 46° W 22:36:19 10° NNW
Cosmos 2322 Rocket 3.4 22:33:28 10° NNW 22:37:34 34° NNE 22:37:34 34° NNE
H-2A R/B 2.8 22:42:03 47° NW 22:42:03 47° NW 22:45:46 10° NNW
Cosmos 2360 Rocket 3.9 22:44:05 10° NNW 22:47:51 23° NNE 22:47:51 23° NNE
Cosmos 1697 Rocket 3.5 22:44:24 10° NW 22:49:01 47° W 22:49:01 47° W
Cosmos 1980 Rocket 2.8 22:44:58 10° NNW 22:49:16 53° NW 22:49:16 53° NW
SL-16 R/B 3.4 23:09:23 10° NNW 23:12:57 38° N 23:12:57 38° N
ATLAS 2AS CENTAUR R/B 3.8 23:14:11 10° NW 23:21:11 38° WSW 23:21:11 38° WSW
NOSS 3-4 (A) 4.2 23:26:53 10° NW 23:32:11 57° NW 23:32:11 57° NW
NOSS 3-4 (C) 4.2 23:27:00 10° NW 23:32:17 57° NW 23:32:17 57° NW
Terra 4.1 23:38:16 22° NW 23:38:16 22° NW 23:40:01 10° NNW
USA 267 4.0 23:48:49 45° WNW 23:48:49 45° WNW 23:53:08 10° WNW
Cosmos 1833 Rocket 4.5 23:51:39 27° N 23:51:39 27° N 23:54:35 10° NNE
Cosmos 2219 Rocket 4.3 23:51:02 10° N 23:53:58 21° NNE 23:53:58 21° NNE
